Year,Month,Day,Hour,Minute,Value (Times are PST for temperature in C)
2010,07,23,00,00,11.60
2010,07,23,00,01,11.70
2010,07,23,00,02,11.70
2010,07,23,00,03,11.70
2010,07,23,00,04,11.70
2010,07,23,00,05,11.70
2010,07,23,00,06,11.70
2010,07,23,00,07,11.70
2010,07,23,00,08,11.70
2010,07,23,00,09,11.80
2010,07,23,00,10,11.80
2010,07,23,00,11,11.80
2010,07,23,00,12,11.80
2010,07,23,00,13,11.80
2010,07,23,00,14,11.80
2010,07,23,00,15,11.80
2010,07,23,00,16,11.80
2010,07,23,00,17,11.80
2010,07,23,00,18,11.80
2010,07,23,00,19,11.90
2010,07,23,00,20,11.90
2010,07,23,00,21,11.90
2010,07,23,00,22,11.90
2010,07,23,00,23,11.90
2010,07,23,00,24,11.90
2010,07,23,00,25,11.90
2010,07,23,00,26,11.90
2010,07,23,00,27,11.90
2010,07,23,00,28,12.00
2010,07,23,00,29,12.00
2010,07,23,00,30,12.00
2010,07,23,00,31,12.00
2010,07,23,00,32,12.00
2010,07,23,00,33,12.10
2010,07,23,00,34,12.10
2010,07,23,00,35,12.10
2010,07,23,00,36,12.10
2010,07,23,00,37,12.10
2010,07,23,00,38,12.10
2010,07,23,00,39,12.10
2010,07,23,00,40,12.20
2010,07,23,00,41,12.20
2010,07,23,00,42,12.20
2010,07,23,00,43,12.20
2010,07,23,00,44,12.30
2010,07,23,00,45,12.30
2010,07,23,00,46,12.30
2010,07,23,00,47,12.30
2010,07,23,00,48,12.30
2010,07,23,00,49,12.30
2010,07,23,00,50,12.30
2010,07,23,00,51,12.30
2010,07,23,00,52,12.30
2010,07,23,00,53,12.30
2010,07,23,00,54,12.30
2010,07,23,00,55,12.30
2010,07,23,00,56,12.30
2010,07,23,00,57,12.20
2010,07,23,00,58,12.20
2010,07,23,00,59,12.20
2010,07,23,01,00,12.20
2010,07,23,01,01,12.10
2010,07,23,01,02,12.10
2010,07,23,01,03,12.10
2010,07,23,01,04,12.00
2010,07,23,01,05,12.00
2010,07,23,01,06,12.00
2010,07,23,01,07,11.90
2010,07,23,01,08,11.90
2010,07,23,01,09,11.90
2010,07,23,01,10,11.90
2010,07,23,01,11,11.80
2010,07,23,01,12,11.80
2010,07,23,01,13,11.80
2010,07,23,01,14,11.80
2010,07,23,01,15,11.70
2010,07,23,01,16,11.70
2010,07,23,01,17,11.70
2010,07,23,01,18,11.60
2010,07,23,01,19,11.60
2010,07,23,01,20,11.60
2010,07,23,01,21,11.60
2010,07,23,01,22,11.50
2010,07,23,01,23,11.50
2010,07,23,01,24,11.50
2010,07,23,01,25,11.40
2010,07,23,01,26,11.40
2010,07,23,01,27,11.40
2010,07,23,01,28,11.40
2010,07,23,01,29,11.40
2010,07,23,01,30,11.30
2010,07,23,01,31,11.30
2010,07,23,01,32,11.30
2010,07,23,01,33,11.30
2010,07,23,01,34,11.30
2010,07,23,01,35,11.20
2010,07,23,01,36,11.20
2010,07,23,01,37,11.20
2010,07,23,01,38,11.20
2010,07,23,01,39,11.20
2010,07,23,01,40,11.20
2010,07,23,01,41,11.20
2010,07,23,01,42,11.20
2010,07,23,01,43,11.10
2010,07,23,01,44,11.10
2010,07,23,01,45,11.10
2010,07,23,01,46,11.10
2010,07,23,01,47,11.10
2010,07,23,01,48,11.10
2010,07,23,01,49,11.10
2010,07,23,01,50,11.10
2010,07,23,01,51,11.10
2010,07,23,01,52,11.10
2010,07,23,01,53,11.10
2010,07,23,01,54,11.00
2010,07,23,01,55,11.00
2010,07,23,01,56,11.00
2010,07,23,01,57,10.90
2010,07,23,01,58,10.90
2010,07,23,01,59,10.90
2010,07,23,02,00,10.90
2010,07,23,02,01,10.90
2010,07,23,02,02,10.80
2010,07,23,02,03,10.80
2010,07,23,02,04,10.80
2010,07,23,02,05,10.90
2010,07,23,02,06,10.90
2010,07,23,02,07,10.90
2010,07,23,02,08,10.90
2010,07,23,02,09,10.90
2010,07,23,02,10,10.90
2010,07,23,02,11,10.90
2010,07,23,02,12,10.90
2010,07,23,02,13,10.90
2010,07,23,02,14,10.90
2010,07,23,02,15,10.90
2010,07,23,02,16,10.90
2010,07,23,02,17,10.90
2010,07,23,02,18,10.90
2010,07,23,02,19,10.90
2010,07,23,02,20,10.90
2010,07,23,02,21,10.90
2010,07,23,02,22,10.90
2010,07,23,02,23,10.80
2010,07,23,02,24,10.80
2010,07,23,02,25,10.80
2010,07,23,02,26,10.70
2010,07,23,02,27,10.70
2010,07,23,02,28,10.60
2010,07,23,02,29,10.60
2010,07,23,02,30,10.60
2010,07,23,02,31,10.60
2010,07,23,02,32,10.60
2010,07,23,02,33,10.60
2010,07,23,02,34,10.60
2010,07,23,02,35,10.70
2010,07,23,02,36,10.70
2010,07,23,02,37,10.70
2010,07,23,02,38,10.70
2010,07,23,02,39,10.70
2010,07,23,02,40,10.60
2010,07,23,02,41,10.60
2010,07,23,02,42,10.50
2010,07,23,02,43,10.50
2010,07,23,02,44,10.40
2010,07,23,02,45,10.40
2010,07,23,02,46,10.40
2010,07,23,02,47,10.40
2010,07,23,02,48,10.40
2010,07,23,02,49,10.30
2010,07,23,02,50,10.40
2010,07,23,02,51,10.40
2010,07,23,02,52,10.40
2010,07,23,02,53,10.40
2010,07,23,02,54,10.30
2010,07,23,02,55,10.30
2010,07,23,02,56,10.30
2010,07,23,02,57,10.20
2010,07,23,02,58,10.20
2010,07,23,02,59,10.20
2010,07,23,03,00,10.20
2010,07,23,03,01,10.10
2010,07,23,03,02,10.10
2010,07,23,03,03,10.10
2010,07,23,03,04,10.10
2010,07,23,03,05,10.10
2010,07,23,03,06,10.10
2010,07,23,03,07,10.10
2010,07,23,03,08,10.10
2010,07,23,03,09,10.10
2010,07,23,03,10,10.10
2010,07,23,03,11,10.10
2010,07,23,03,12,10.10
2010,07,23,03,13,10.10
2010,07,23,03,14,10.10
2010,07,23,03,15,10.10
2010,07,23,03,16,10.10
2010,07,23,03,17,10.10
2010,07,23,03,18,10.10
2010,07,23,03,19,10.10
2010,07,23,03,20,10.10
2010,07,23,03,21,10.10
2010,07,23,03,22,10.10
2010,07,23,03,23,10.10
2010,07,23,03,24,10.10
2010,07,23,03,25,10.10
2010,07,23,03,26,10.10
2010,07,23,03,27,10.20
2010,07,23,03,28,10.10
2010,07,23,03,29,10.10
2010,07,23,03,30,10.10
2010,07,23,03,31,10.10
2010,07,23,03,32,10.10
2010,07,23,03,33,10.10
2010,07,23,03,34,10.10
2010,07,23,03,35,10.10
2010,07,23,03,36,10.10
2010,07,23,03,37,10.10
2010,07,23,03,38,10.00
2010,07,23,03,39,10.00
2010,07,23,03,40,9.90
2010,07,23,03,41,9.90
2010,07,23,03,42,9.90
2010,07,23,03,43,9.90
2010,07,23,03,44,9.90
2010,07,23,03,45,9.90
2010,07,23,03,46,9.90
2010,07,23,03,47,9.80
2010,07,23,03,48,9.80
2010,07,23,03,49,9.70
2010,07,23,03,50,9.70
2010,07,23,03,51,9.70
2010,07,23,03,52,9.70
2010,07,23,03,53,9.70
2010,07,23,03,54,9.60
2010,07,23,03,55,9.60
2010,07,23,03,56,9.60
2010,07,23,03,57,9.60
2010,07,23,03,58,9.60
2010,07,23,03,59,9.60
2010,07,23,04,00,9.50
2010,07,23,04,01,9.50
2010,07,23,04,02,9.50
2010,07,23,04,03,9.50
2010,07,23,04,04,9.50
2010,07,23,04,05,9.50
2010,07,23,04,06,9.50
2010,07,23,04,07,9.50
2010,07,23,04,08,9.60
2010,07,23,04,09,9.60
2010,07,23,04,10,9.60
2010,07,23,04,11,9.50
2010,07,23,04,12,9.50
2010,07,23,04,13,9.50
2010,07,23,04,14,9.50
2010,07,23,04,15,9.50
2010,07,23,04,16,9.40
2010,07,23,04,17,9.40
2010,07,23,04,18,9.40
2010,07,23,04,19,9.40
2010,07,23,04,20,9.40
2010,07,23,04,21,9.40
2010,07,23,04,22,9.40
2010,07,23,04,23,9.40
2010,07,23,04,24,9.40
2010,07,23,04,25,9.40
2010,07,23,04,26,9.40
2010,07,23,04,27,9.40
2010,07,23,04,28,9.40
2010,07,23,04,29,9.40
2010,07,23,04,30,9.40
2010,07,23,04,31,9.40
2010,07,23,04,32,9.40
2010,07,23,04,33,9.40
2010,07,23,04,34,9.30
2010,07,23,04,35,9.30
2010,07,23,04,36,9.30
2010,07,23,04,37,9.30
2010,07,23,04,38,9.30
2010,07,23,04,39,9.20
2010,07,23,04,40,9.20
2010,07,23,04,41,9.20
2010,07,23,04,42,9.20
2010,07,23,04,43,9.20
2010,07,23,04,44,9.20
2010,07,23,04,45,9.10
2010,07,23,04,46,9.10
2010,07,23,04,47,9.10
2010,07,23,04,48,9.10
2010,07,23,04,49,9.10
2010,07,23,04,50,9.10
2010,07,23,04,51,9.10
2010,07,23,04,52,9.10
2010,07,23,04,53,9.10
2010,07,23,04,54,9.20
2010,07,23,04,55,9.20
2010,07,23,04,56,9.20
2010,07,23,04,57,9.30
2010,07,23,04,58,9.30
2010,07,23,04,59,9.30
2010,07,23,05,00,9.30
2010,07,23,05,01,9.30
2010,07,23,05,02,9.40
2010,07,23,05,03,9.40
2010,07,23,05,04,9.40
2010,07,23,05,05,9.40
2010,07,23,05,06,9.30
2010,07,23,05,07,9.30
2010,07,23,05,08,9.30
2010,07,23,05,09,9.30
2010,07,23,05,10,9.20
2010,07,23,05,11,9.20
2010,07,23,05,12,9.20
2010,07,23,05,13,9.20
2010,07,23,05,14,9.20
2010,07,23,05,15,9.10
2010,07,23,05,16,9.10
2010,07,23,05,17,9.10
2010,07,23,05,18,9.10
2010,07,23,05,19,9.00
2010,07,23,05,20,9.00
2010,07,23,05,21,9.00
2010,07,23,05,22,8.90
2010,07,23,05,23,8.90
2010,07,23,05,24,8.90
2010,07,23,05,25,8.90
2010,07,23,05,26,8.90
2010,07,23,05,27,8.90
2010,07,23,05,28,9.00
2010,07,23,05,29,9.00
2010,07,23,05,30,9.00
2010,07,23,05,31,9.00
2010,07,23,05,32,9.00
2010,07,23,05,33,9.00
2010,07,23,05,34,9.00
2010,07,23,05,35,9.00
2010,07,23,05,36,9.00
2010,07,23,05,37,8.90
2010,07,23,05,38,8.90
2010,07,23,05,39,8.90
2010,07,23,05,40,8.80
2010,07,23,05,41,8.80
2010,07,23,05,42,8.80
2010,07,23,05,43,8.80
2010,07,23,05,44,8.80
2010,07,23,05,45,8.80
2010,07,23,05,46,8.80
2010,07,23,05,47,8.80
2010,07,23,05,48,8.80
2010,07,23,05,49,8.80
2010,07,23,05,50,8.80
2010,07,23,05,51,8.80
2010,07,23,05,52,8.80
2010,07,23,05,53,8.80
2010,07,23,05,54,8.70
2010,07,23,05,55,8.70
2010,07,23,05,56,8.70
2010,07,23,05,57,8.70
2010,07,23,05,58,8.70
2010,07,23,05,59,8.70
2010,07,23,06,00,8.80
2010,07,23,06,01,8.70
2010,07,23,06,02,8.70
2010,07,23,06,03,8.70
2010,07,23,06,04,8.70
2010,07,23,06,05,8.70
2010,07,23,06,06,8.70
2010,07,23,06,07,8.70
2010,07,23,06,08,8.70
2010,07,23,06,09,8.60
2010,07,23,06,10,8.60
2010,07,23,06,11,8.60
2010,07,23,06,12,8.60
2010,07,23,06,13,8.60
2010,07,23,06,14,8.60
2010,07,23,06,15,8.60
2010,07,23,06,16,8.60
2010,07,23,06,17,8.60
2010,07,23,06,18,8.60
2010,07,23,06,19,8.60
2010,07,23,06,20,8.60
2010,07,23,06,21,8.60
2010,07,23,06,22,8.60
2010,07,23,06,23,8.70
2010,07,23,06,24,8.70
2010,07,23,06,25,8.70
2010,07,23,06,26,8.70
2010,07,23,06,27,8.70
2010,07,23,06,28,8.70
2010,07,23,06,29,8.70
2010,07,23,06,30,8.70
2010,07,23,06,31,8.70
2010,07,23,06,32,8.80
2010,07,23,06,33,8.80
2010,07,23,06,34,8.80
2010,07,23,06,35,8.90
2010,07,23,06,36,8.90
2010,07,23,06,37,8.90
2010,07,23,06,38,9.00
2010,07,23,06,39,9.00
2010,07,23,06,40,9.00
2010,07,23,06,41,9.00
2010,07,23,06,42,9.00
2010,07,23,06,43,9.10
2010,07,23,06,44,9.10
2010,07,23,06,45,9.10
2010,07,23,06,46,9.10
2010,07,23,06,47,9.10
2010,07,23,06,48,9.10
2010,07,23,06,49,9.20
2010,07,23,06,50,9.20
2010,07,23,06,51,9.20
2010,07,23,06,52,9.20
2010,07,23,06,53,9.30
2010,07,23,06,54,9.30
2010,07,23,06,55,9.30
2010,07,23,06,56,9.40
2010,07,23,06,57,9.40
2010,07,23,06,58,9.50
2010,07,23,06,59,9.50
2010,07,23,07,00,9.60
2010,07,23,07,01,9.70
2010,07,23,07,02,9.70
2010,07,23,07,03,9.70
2010,07,23,07,04,9.80
2010,07,23,07,05,9.80
2010,07,23,07,06,9.80
2010,07,23,07,07,9.90
2010,07,23,07,08,9.90
2010,07,23,07,09,10.00
2010,07,23,07,10,10.00
2010,07,23,07,11,10.10
2010,07,23,07,12,10.10
2010,07,23,07,13,10.20
2010,07,23,07,14,10.20
2010,07,23,07,15,10.20
2010,07,23,07,16,10.30
2010,07,23,07,17,10.30
2010,07,23,07,18,10.40
2010,07,23,07,19,10.40
2010,07,23,07,20,10.40
2010,07,23,07,21,10.50
2010,07,23,07,22,10.60
2010,07,23,07,23,10.60
2010,07,23,07,24,10.70
2010,07,23,07,25,10.70
2010,07,23,07,26,10.80
2010,07,23,07,27,10.80
2010,07,23,07,28,10.90
2010,07,23,07,29,11.00
2010,07,23,07,30,11.10
2010,07,23,07,31,11.20
2010,07,23,07,32,11.30
2010,07,23,07,33,11.40
2010,07,23,07,34,11.50
2010,07,23,07,35,11.60
2010,07,23,07,36,11.70
2010,07,23,07,37,11.80
2010,07,23,07,38,11.80
2010,07,23,07,39,11.90
2010,07,23,07,40,12.00
2010,07,23,07,41,12.10
2010,07,23,07,42,12.10
2010,07,23,07,43,12.10
2010,07,23,07,44,12.20
2010,07,23,07,45,12.20
2010,07,23,07,46,12.30
2010,07,23,07,47,12.30
2010,07,23,07,48,12.40
2010,07,23,07,49,12.50
2010,07,23,07,50,12.60
2010,07,23,07,51,12.60
2010,07,23,07,52,12.70
2010,07,23,07,53,12.80
2010,07,23,07,54,12.80
2010,07,23,07,55,12.90
2010,07,23,07,56,12.90
2010,07,23,07,57,13.00
2010,07,23,07,58,13.00
2010,07,23,07,59,13.10
2010,07,23,08,00,13.20
2010,07,23,08,01,13.20
2010,07,23,08,02,13.30
2010,07,23,08,03,13.40
2010,07,23,08,04,13.50
2010,07,23,08,05,13.50
2010,07,23,08,06,13.60
2010,07,23,08,07,13.70
2010,07,23,08,08,13.70
2010,07,23,08,09,13.80
2010,07,23,08,10,13.80
2010,07,23,08,11,13.90
2010,07,23,08,12,14.00
2010,07,23,08,13,14.10
2010,07,23,08,14,14.30
2010,07,23,08,15,14.40
2010,07,23,08,16,14.50
2010,07,23,08,17,14.60
2010,07,23,08,18,14.70
2010,07,23,08,19,14.80
2010,07,23,08,20,14.90
2010,07,23,08,21,15.00
2010,07,23,08,22,15.00
2010,07,23,08,23,15.00
2010,07,23,08,24,15.00
2010,07,23,08,25,15.00
2010,07,23,08,26,15.00
2010,07,23,08,27,15.10
2010,07,23,08,28,15.10
2010,07,23,08,29,15.20
2010,07,23,08,30,15.30
2010,07,23,08,31,15.30
2010,07,23,08,32,15.30
2010,07,23,08,33,15.40
2010,07,23,08,34,15.50
2010,07,23,08,35,15.60
2010,07,23,08,36,15.70
2010,07,23,08,37,15.80
2010,07,23,08,38,15.80
2010,07,23,08,39,15.90
2010,07,23,08,40,15.90
2010,07,23,08,41,16.00
2010,07,23,08,42,16.10
2010,07,23,08,43,16.10
2010,07,23,08,44,16.20
2010,07,23,08,45,16.30
2010,07,23,08,46,16.30
2010,07,23,08,47,16.40
2010,07,23,08,48,16.40
2010,07,23,08,49,16.50
2010,07,23,08,50,16.60
2010,07,23,08,51,16.60
2010,07,23,08,52,16.60
2010,07,23,08,53,16.70
2010,07,23,08,54,16.70
2010,07,23,08,55,16.70
2010,07,23,08,56,16.80
2010,07,23,08,57,16.80
2010,07,23,08,58,16.80
2010,07,23,08,59,16.90
2010,07,23,09,00,16.90
2010,07,23,09,01,17.00
2010,07,23,09,02,17.00
2010,07,23,09,03,17.10
2010,07,23,09,04,17.10
2010,07,23,09,05,17.20
2010,07,23,09,06,17.20
2010,07,23,09,07,17.30
2010,07,23,09,08,17.40
2010,07,23,09,09,17.50
2010,07,23,09,10,17.60
2010,07,23,09,11,17.60
2010,07,23,09,12,17.50
2010,07,23,09,13,17.50
2010,07,23,09,14,17.50
2010,07,23,09,15,17.60
2010,07,23,09,16,17.70
2010,07,23,09,17,17.80
2010,07,23,09,18,17.80
2010,07,23,09,19,17.90
2010,07,23,09,20,18.00
2010,07,23,09,21,18.10
2010,07,23,09,22,18.20
2010,07,23,09,23,18.20
2010,07,23,09,24,18.20
2010,07,23,09,25,18.20
2010,07,23,09,26,18.20
2010,07,23,09,27,18.30
2010,07,23,09,28,18.30
2010,07,23,09,29,18.30
2010,07,23,09,30,18.20
2010,07,23,09,31,18.20
2010,07,23,09,32,18.20
2010,07,23,09,33,18.20
2010,07,23,09,34,18.10
2010,07,23,09,35,18.10
2010,07,23,09,36,18.10
2010,07,23,09,37,18.10
2010,07,23,09,38,18.10
2010,07,23,09,39,18.10
2010,07,23,09,40,18.10
2010,07,23,09,41,18.20
2010,07,23,09,42,18.20
2010,07,23,09,43,18.30
2010,07,23,09,44,18.40
2010,07,23,09,45,18.50
2010,07,23,09,46,18.50
2010,07,23,09,47,18.50
2010,07,23,09,48,18.50
2010,07,23,09,49,18.50
2010,07,23,09,50,18.60
2010,07,23,09,51,18.70
2010,07,23,09,52,18.70
2010,07,23,09,53,18.70
2010,07,23,09,54,18.70
2010,07,23,09,55,18.80
2010,07,23,09,56,18.90
2010,07,23,09,57,19.00
2010,07,23,09,58,19.00
2010,07,23,09,59,19.00
2010,07,23,10,00,19.10
2010,07,23,10,01,19.10
2010,07,23,10,02,19.10
2010,07,23,10,03,19.10
2010,07,23,10,04,19.10
2010,07,23,10,05,19.20
2010,07,23,10,06,19.20
2010,07,23,10,07,19.10
2010,07,23,10,08,19.10
2010,07,23,10,09,19.00
2010,07,23,10,10,18.90
2010,07,23,10,11,18.90
2010,07,23,10,12,18.90
2010,07,23,10,13,18.90
2010,07,23,10,14,18.90
2010,07,23,10,15,18.90
2010,07,23,10,16,18.90
2010,07,23,10,17,19.00
2010,07,23,10,18,19.10
2010,07,23,10,19,19.10
2010,07,23,10,20,19.20
2010,07,23,10,21,19.30
2010,07,23,10,22,19.40
2010,07,23,10,23,19.50
2010,07,23,10,24,19.60
2010,07,23,10,25,19.60
2010,07,23,10,26,19.60
2010,07,23,10,27,19.50
2010,07,23,10,28,19.50
2010,07,23,10,29,19.50
2010,07,23,10,30,19.50
2010,07,23,10,31,19.50
2010,07,23,10,32,19.50
2010,07,23,10,33,19.50
2010,07,23,10,34,19.40
2010,07,23,10,35,19.30
2010,07,23,10,36,19.30
2010,07,23,10,37,19.30
2010,07,23,10,38,19.30
2010,07,23,10,39,19.30
2010,07,23,10,40,19.30
2010,07,23,10,41,19.30
2010,07,23,10,42,19.30
2010,07,23,10,43,19.40
2010,07,23,10,44,19.50
2010,07,23,10,45,19.60
2010,07,23,10,46,19.80
2010,07,23,10,47,19.90
2010,07,23,10,48,20.00
2010,07,23,10,49,20.10
2010,07,23,10,50,20.20
2010,07,23,10,51,20.20
2010,07,23,10,52,20.20
2010,07,23,10,53,20.20
2010,07,23,10,54,20.20
2010,07,23,10,55,20.20
2010,07,23,10,56,20.20
2010,07,23,10,57,20.20
2010,07,23,10,58,20.30
2010,07,23,10,59,20.30
2010,07,23,11,00,20.30
2010,07,23,11,01,20.40
2010,07,23,11,02,20.50
2010,07,23,11,03,20.50
2010,07,23,11,04,20.50
2010,07,23,11,05,20.40
2010,07,23,11,06,20.40
2010,07,23,11,07,20.40
2010,07,23,11,08,20.50
2010,07,23,11,09,20.50
2010,07,23,11,10,20.50
2010,07,23,11,11,20.50
2010,07,23,11,12,20.50
2010,07,23,11,13,20.60
2010,07,23,11,14,20.70
2010,07,23,11,15,20.80
2010,07,23,11,16,20.80
2010,07,23,11,17,20.80
2010,07,23,11,18,20.70
2010,07,23,11,19,20.60
2010,07,23,11,20,20.50
2010,07,23,11,21,20.50
2010,07,23,11,22,20.60
2010,07,23,11,23,20.70
2010,07,23,11,24,20.80
2010,07,23,11,25,20.90
2010,07,23,11,26,20.80
2010,07,23,11,27,20.70
2010,07,23,11,28,20.60
2010,07,23,11,29,20.50
2010,07,23,11,30,20.40
2010,07,23,11,31,20.40
2010,07,23,11,32,20.40
2010,07,23,11,33,20.40
2010,07,23,11,34,20.40
2010,07,23,11,35,20.40
2010,07,23,11,36,20.40
2010,07,23,11,37,20.40
2010,07,23,11,38,20.40
2010,07,23,11,39,20.50
2010,07,23,11,40,20.50
2010,07,23,11,41,20.50
2010,07,23,11,42,20.50
2010,07,23,11,43,20.30
2010,07,23,11,44,20.20
2010,07,23,11,45,20.20
2010,07,23,11,46,20.30
2010,07,23,11,47,20.40
2010,07,23,11,48,20.50
2010,07,23,11,49,20.60
2010,07,23,11,50,20.70
2010,07,23,11,51,20.70
2010,07,23,11,52,20.70
2010,07,23,11,53,20.80
2010,07,23,11,54,20.80
2010,07,23,11,55,20.80
2010,07,23,11,56,20.80
2010,07,23,11,57,20.90
2010,07,23,11,58,20.90
2010,07,23,11,59,20.90
2010,07,23,12,00,20.80
2010,07,23,12,01,20.80
2010,07,23,12,02,20.80
2010,07,23,12,03,20.90
2010,07,23,12,04,20.90
2010,07,23,12,05,20.80
2010,07,23,12,06,20.70
2010,07,23,12,07,20.70
2010,07,23,12,08,20.70
2010,07,23,12,09,20.70
2010,07,23,12,10,20.70
2010,07,23,12,11,20.80
2010,07,23,12,12,20.90
2010,07,23,12,13,20.90
2010,07,23,12,14,20.90
2010,07,23,12,15,20.80
2010,07,23,12,16,20.70
2010,07,23,12,17,20.70
2010,07,23,12,18,20.60
2010,07,23,12,19,20.40
2010,07,23,12,20,20.20
2010,07,23,12,21,20.10
2010,07,23,12,22,20.10
2010,07,23,12,23,20.20
2010,07,23,12,24,20.30
2010,07,23,12,25,20.30
2010,07,23,12,26,20.40
2010,07,23,12,27,20.50
2010,07,23,12,28,20.60
2010,07,23,12,29,20.70
2010,07,23,12,30,20.90
2010,07,23,12,31,21.00
2010,07,23,12,32,21.20
2010,07,23,12,33,21.30
2010,07,23,12,34,21.40
2010,07,23,12,35,21.30
2010,07,23,12,36,21.20
2010,07,23,12,37,21.20
2010,07,23,12,38,21.10
2010,07,23,12,39,21.00
2010,07,23,12,40,20.90
2010,07,23,12,41,20.90
2010,07,23,12,42,20.80
2010,07,23,12,43,20.80
2010,07,23,12,44,20.80
2010,07,23,12,45,20.90
2010,07,23,12,46,21.00
2010,07,23,12,47,21.10
2010,07,23,12,48,21.20
2010,07,23,12,49,21.40
2010,07,23,12,50,21.50
2010,07,23,12,51,21.60
2010,07,23,12,52,21.60
2010,07,23,12,53,21.60
2010,07,23,12,54,21.60
2010,07,23,12,55,21.70
2010,07,23,12,56,21.70
2010,07,23,12,57,21.60
2010,07,23,12,58,21.70
2010,07,23,12,59,21.60
2010,07,23,13,00,21.60
2010,07,23,13,01,21.70
2010,07,23,13,02,21.70
2010,07,23,13,03,21.80
2010,07,23,13,04,21.70
2010,07,23,13,05,21.70
2010,07,23,13,06,21.80
2010,07,23,13,07,21.80
2010,07,23,13,08,21.80
2010,07,23,13,09,21.80
2010,07,23,13,10,21.80
2010,07,23,13,11,21.80
2010,07,23,13,12,21.80
2010,07,23,13,13,21.90
2010,07,23,13,14,22.00
2010,07,23,13,15,22.10
2010,07,23,13,16,22.00
2010,07,23,13,17,22.00
2010,07,23,13,18,22.10
2010,07,23,13,19,22.00
2010,07,23,13,20,22.00
2010,07,23,13,21,22.00
2010,07,23,13,22,22.00
2010,07,23,13,23,22.10
2010,07,23,13,24,22.10
2010,07,23,13,25,22.10
2010,07,23,13,26,22.10
2010,07,23,13,27,22.20
2010,07,23,13,28,22.20
2010,07,23,13,29,22.30
2010,07,23,13,30,22.30
2010,07,23,13,31,22.40
2010,07,23,13,32,22.40
2010,07,23,13,33,22.50
2010,07,23,13,34,22.60
2010,07,23,13,35,22.50
2010,07,23,13,36,22.60
2010,07,23,13,37,22.60
2010,07,23,13,38,22.60
2010,07,23,13,39,22.70
2010,07,23,13,40,22.80
2010,07,23,13,41,22.80
2010,07,23,13,42,22.80
2010,07,23,13,43,22.80
2010,07,23,13,44,22.70
2010,07,23,13,45,22.60
2010,07,23,13,46,22.60
2010,07,23,13,47,22.70
2010,07,23,13,48,22.70
2010,07,23,13,49,22.70
2010,07,23,13,50,22.70
2010,07,23,13,51,22.80
2010,07,23,13,52,22.90
2010,07,23,13,53,22.90
2010,07,23,13,54,22.80
2010,07,23,13,55,22.80
2010,07,23,13,56,22.80
2010,07,23,13,57,22.80
2010,07,23,13,58,22.90
2010,07,23,13,59,22.90
2010,07,23,14,00,22.90
2010,07,23,14,01,22.90
2010,07,23,14,02,23.00
2010,07,23,14,03,23.00
2010,07,23,14,04,23.10
2010,07,23,14,05,23.10
2010,07,23,14,06,23.10
2010,07,23,14,07,23.20
2010,07,23,14,08,23.30
2010,07,23,14,09,23.30
2010,07,23,14,10,23.20
2010,07,23,14,11,23.10
2010,07,23,14,12,23.00
2010,07,23,14,13,22.80
2010,07,23,14,14,22.70
2010,07,23,14,15,22.60
2010,07,23,14,16,22.60
2010,07,23,14,17,22.60
2010,07,23,14,18,22.60
2010,07,23,14,19,22.70
2010,07,23,14,20,22.80
2010,07,23,14,21,22.80
2010,07,23,14,22,22.80
2010,07,23,14,23,22.60
2010,07,23,14,24,22.50
2010,07,23,14,25,22.50
2010,07,23,14,26,22.50
2010,07,23,14,27,22.50
2010,07,23,14,28,22.60
2010,07,23,14,29,22.60
2010,07,23,14,30,22.60
2010,07,23,14,31,22.70
2010,07,23,14,32,22.80
2010,07,23,14,33,22.90
2010,07,23,14,34,23.00
2010,07,23,14,35,23.10
2010,07,23,14,36,23.20
2010,07,23,14,37,23.10
2010,07,23,14,38,23.00
2010,07,23,14,39,22.90
2010,07,23,14,40,22.80
2010,07,23,14,41,22.90
2010,07,23,14,42,22.90
2010,07,23,14,43,22.90
2010,07,23,14,44,23.00
2010,07,23,14,45,22.90
2010,07,23,14,46,22.90
2010,07,23,14,47,22.90
2010,07,23,14,48,22.80
2010,07,23,14,49,22.80
2010,07,23,14,50,22.80
2010,07,23,14,51,22.90
2010,07,23,14,52,22.80
2010,07,23,14,53,22.80
2010,07,23,14,54,22.90
2010,07,23,14,55,23.00
2010,07,23,14,56,23.10
2010,07,23,14,57,23.20
2010,07,23,14,58,23.20
2010,07,23,14,59,23.10
2010,07,23,15,00,23.10
2010,07,23,15,01,23.10
2010,07,23,15,02,23.10
2010,07,23,15,03,23.20
2010,07,23,15,04,23.30
2010,07,23,15,05,23.20
2010,07,23,15,06,23.20
2010,07,23,15,07,23.10
2010,07,23,15,08,23.10
2010,07,23,15,09,23.10
2010,07,23,15,10,23.20
2010,07,23,15,11,23.20
2010,07,23,15,12,23.10
2010,07,23,15,13,22.90
2010,07,23,15,14,22.80
2010,07,23,15,15,22.70
2010,07,23,15,16,22.70
2010,07,23,15,17,22.80
2010,07,23,15,18,22.90
2010,07,23,15,19,22.80
2010,07,23,15,20,22.90
2010,07,23,15,21,22.80
2010,07,23,15,22,22.70
2010,07,23,15,23,22.70
2010,07,23,15,24,22.50
2010,07,23,15,25,22.20
2010,07,23,15,26,22.10
2010,07,23,15,27,22.20
2010,07,23,15,28,22.20
2010,07,23,15,29,22.30
2010,07,23,15,30,22.30
2010,07,23,15,31,22.30
2010,07,23,15,32,22.30
2010,07,23,15,33,22.40
2010,07,23,15,34,22.30
2010,07,23,15,35,22.20
2010,07,23,15,36,22.10
2010,07,23,15,37,22.10
2010,07,23,15,38,22.20
2010,07,23,15,39,22.30
2010,07,23,15,40,22.30
2010,07,23,15,41,22.20
2010,07,23,15,42,22.10
2010,07,23,15,43,22.10
2010,07,23,15,44,22.10
2010,07,23,15,45,22.10
2010,07,23,15,46,22.20
2010,07,23,15,47,22.20
2010,07,23,15,48,22.10
2010,07,23,15,49,22.10
2010,07,23,15,50,22.30
2010,07,23,15,51,22.40
2010,07,23,15,52,22.50
2010,07,23,15,53,22.70
2010,07,23,15,54,22.70
2010,07,23,15,55,22.70
2010,07,23,15,56,22.80
2010,07,23,15,57,22.90
2010,07,23,15,58,23.10
2010,07,23,15,59,23.10
2010,07,23,16,00,23.10
2010,07,23,16,01,23.10
2010,07,23,16,02,23.30
2010,07,23,16,03,23.40
2010,07,23,16,04,23.40
2010,07,23,16,05,23.50
2010,07,23,16,06,23.50
2010,07,23,16,07,23.50
2010,07,23,16,08,23.50
2010,07,23,16,09,23.60
2010,07,23,16,10,23.60
2010,07,23,16,11,23.70
2010,07,23,16,12,23.80
2010,07,23,16,13,23.70
2010,07,23,16,14,23.50
2010,07,23,16,15,23.40
2010,07,23,16,16,23.20
2010,07,23,16,17,23.00
2010,07,23,16,18,22.90
2010,07,23,16,19,22.70
2010,07,23,16,20,22.60
2010,07,23,16,21,22.50
2010,07,23,16,22,22.60
2010,07,23,16,23,22.60
2010,07,23,16,24,22.70
2010,07,23,16,25,22.70
2010,07,23,16,26,22.80
2010,07,23,16,27,22.90
2010,07,23,16,28,22.90
2010,07,23,16,29,23.00
2010,07,23,16,30,23.00
2010,07,23,16,31,23.10
2010,07,23,16,32,23.10
2010,07,23,16,33,23.00
2010,07,23,16,34,23.00
2010,07,23,16,35,23.00
2010,07,23,16,36,23.20
2010,07,23,16,37,23.40
2010,07,23,16,38,23.40
2010,07,23,16,39,23.40
2010,07,23,16,40,23.30
2010,07,23,16,41,23.30
2010,07,23,16,42,23.30
2010,07,23,16,43,23.20
2010,07,23,16,44,23.20
2010,07,23,16,45,23.10
2010,07,23,16,46,23.00
2010,07,23,16,47,22.90
2010,07,23,16,48,22.90
2010,07,23,16,49,22.90
2010,07,23,16,50,23.00
2010,07,23,16,51,23.10
2010,07,23,16,52,23.20
2010,07,23,16,53,23.30
2010,07,23,16,54,23.40
2010,07,23,16,55,23.50
2010,07,23,16,56,23.50
2010,07,23,16,57,23.60
2010,07,23,16,58,23.70
2010,07,23,16,59,23.70
2010,07,23,17,00,23.60
2010,07,23,17,01,23.40
2010,07,23,17,02,23.40
2010,07,23,17,03,23.40
2010,07,23,17,04,23.30
2010,07,23,17,05,23.30
2010,07,23,17,06,23.20
2010,07,23,17,07,23.10
2010,07,23,17,08,23.10
2010,07,23,17,09,23.10
2010,07,23,17,10,23.10
2010,07,23,17,11,23.20
2010,07,23,17,12,23.30
2010,07,23,17,13,23.40
2010,07,23,17,14,23.50
2010,07,23,17,15,23.70
2010,07,23,17,16,23.70
2010,07,23,17,17,23.70
2010,07,23,17,18,23.70
2010,07,23,17,19,23.70
2010,07,23,17,20,23.60
2010,07,23,17,21,23.40
2010,07,23,17,22,23.20
2010,07,23,17,23,23.00
2010,07,23,17,24,23.00
2010,07,23,17,25,23.00
2010,07,23,17,26,23.00
2010,07,23,17,27,23.10
2010,07,23,17,28,23.10